Tracking 17554 objects as of 6-February-2016
HD Live streaming from Space Station
objects crossing your sky now

UNAMSAT

Track UNAMSAT now!
10-day predictions
UNAMSAT is classified as:


NORAD ID: 24305
Int'l Code: 1996-052B
Perigee: 971.1 km
Apogee: 1,015.4 km
Inclination: 82.9 °
Period: 104.8 minutes
Semi major axis: 7364 km
RCS: 0.174 m2 (medium)
Launch date: September 5, 1996
Source: Mexico (MEX)
Launch site: PLESETSK MISSILE AND SPACE COMPLEX (PKMTR)
Your satellite tracking list
Your tracking list is empty





NASA's NSSDC Master Catalog

Two Line Element Set (TLE):
1 24305U 96052B   16036.42630281  .00000035  00000-0  20837-4 0  9990
2 24305  82.9381   0.8330 0030028 351.0434   9.0182 13.7376137973494
Source of the keplerian elements: AFSPC

N2YO: 320